Home   Weather   Krems   Past weeks

Flag for Austria Past Weather in Krems, Lower Austria, Austria — Yesterday and Last 2 Weeks

Now
57 °F

Passing clouds.


Feels Like: 57 °F
Forecast: 42 / 73 °F
Wind: 1 mph from North

Location: Tulln Airport

Current Time: Sep 27, 2016 at 9:11:38 PM

Latest Report: Sep 27, 2016 at 8:20 PM


Visibility: 9 mi

Pressure: 30.33 "Hg

Humidity: 72%

Dew Point: 48 °F

Location of KremsLocation

Past Weather in Krems — Graph

°F

Krems Temperature Yesterday

Maximum temperature yesterday: 70 °F (at 2:50 PM)
Minimum temperature yesterday: 48 °F (at 5:50 AM)
Average temperature yesterday: 59 °F

High & Low Weather Summary for the Past Weeks

 TemperatureHumidityPressure
High84 °F (Sep 13, 1:50 PM)100% (Sep 15, 6:50 AM)30.33 "Hg (Sep 15, 6:50 AM)
Low41 °F (Sep 23, 5:50 AM)36% (Sep 24, 2:50 PM)29.74 "Hg (Sep 17, 5:50 AM)
Average64 °F68%30.05 "Hg
* Reported Sep 12 7:50 PM — Sep 27 7:50 PM, Krems, Weather by CustomWeather, © 2016

Note: Actual official high and low records may vary slightly from our data, if they occured in-between our weather recording intervals... More about our weather records

Advertising

Krems Weather History for the Previous 24 Hours

Scroll right to see more
 ConditionsComfort  
Time TempWeatherWind HumidityBarometerVisibility
7:50 PM
Tue, Sep 27
59 °FPassing clouds.2 mph68%30.33 "Hg9 mi
6:50 PM63 °FPassing clouds.5 mph59%30.30 "Hg12 mi
5:50 PM68 °FPassing clouds.2 mph46%30.30 "Hg12 mi
4:50 PM70 °FPassing clouds.1 mph46%30.27 "Hg12 mi
3:50 PM70 °FPassing clouds.3 mph53%30.27 "Hg9 mi
2:50 PM70 °FPassing clouds.3 mph57%30.30 "Hg9 mi
1:50 PM68 °FPassing clouds.3 mph60%30.30 "Hg9 mi
1:20 PM66 °FPassing clouds.2 mph60%30.30 "Hg7 mi
12:50 PM64 °FPassing clouds.3 mph68%30.30 "Hg7 mi
11:50 AM63 °FPassing clouds.2 mph68%30.30 "Hg7 mi
10:50 AM57 °FFog.2 mph82%30.30 "Hg3 mi
9:50 AM52 °FFog.3 mph94%30.30 "Hg1 mi
8:50 AM48 °FFog.3 mph100%30.27 "Hg0 mi
7:50 AM46 °FFog.2 mph100%30.24 "Hg0 mi
6:50 AM46 °FFog.1 mph100%30.24 "Hg0 mi
5:50 AM48 °FFog.2 mph100%30.21 "Hg0 mi
10:50 PM
Mon, Sep 26
55 °FPassing clouds.3 mph88%30.18 "Hg12 mi
9:50 PM55 °FPassing clouds.2 mph88%30.18 "Hg12 mi
Weather by CustomWeather, © 2016

See weather overviewHow to use our weather pages